User: anonymous   Login
Location: Hungerford
(51.4167°N, 1.5167°W)
Time: 02:46:35
(UTC+00:00)
Language:

Cosmos 2266 Rocket - Orbit

View from above orbital plane
View from above orbital plane
View from above satellite
View from above satellite

Ground track
Ground track

The orbit data is extracted from the following two-line orbital elements,

1 22889U 93070B   20337.93565345  .00000093  00000-0  77104-4 0  9998
2 22889  82.9451  96.8025 0048624 284.8379  74.7395 13.77939539361556
Epoch (UTC): 02 December 2020 22:27:20
Eccentricity: 0.0048624
inclination: 82.9451°
perigee height: 935 km
apogee height: 1007 km
right ascension of ascending node: 96.8025°
argument of perigee: 284.8379°
revolutions per day: 13.77939539
mean anomaly at epoch: 74.7395°
orbit number at epoch: 36155

The dashed part of the orbit path shows where the satellite is in the earth's shadow,  

DLR